UAL63 KMCO-MPTO

Flight info

Callsign UAL63
Flight time 2h 49m
Altitude 33000
Route FSHUN4 PLUMR DCT FEMID Q79 MCLAW Y442 FUNDI UM335 ARNAL DCT SEKMA OSUPA2C
Aircraft B738/M-SDE2E3FGHIRWXY/LB1

Departure

Time 2026-05-07 20:37
Airport Orlando International Airport (KMCO)

Arrival

Time 2026-05-07 23:26
Airport Tocumen International Airport (MPTO)
Time Latitude Longitude Altitude Speed Heading
2026-05-07 20:31 28.44127 -81.32010 109 ft 18 kts 358°
2026-05-07 20:31 28.44250 -81.32017 108 ft 17 kts 357°
2026-05-07 20:31 28.44368 -81.32008 106 ft 17 kts
2026-05-07 20:32 28.44482 -81.32008 103 ft 16 kts 360°
2026-05-07 20:32 28.44591 -81.32009 101 ft 15 kts 359°
2026-05-07 20:32 28.44660 -81.32010 101 ft 3 kts 359°
2026-05-07 20:32 28.44678 -81.32011 101 ft 3 kts 359°
2026-05-07 20:33 28.44695 -81.32011 101 ft 2 kts 359°
2026-05-07 20:33 28.44712 -81.32012 101 ft 2 kts 358°
2026-05-07 20:33 28.44729 -81.32012 101 ft 2 kts 358°
2026-05-07 20:33 28.44745 -81.32013 101 ft 2 kts 358°
2026-05-07 20:34 28.44760 -81.32013 101 ft 2 kts 358°
2026-05-07 20:34 28.44776 -81.32014 101 ft 2 kts 358°
2026-05-07 20:34 28.44790 -81.32014 101 ft 2 kts 358°
2026-05-07 20:34 28.44807 -81.32023 101 ft 6 kts 313°
2026-05-07 20:35 28.44826 -81.32101 99 ft 8 kts 263°
2026-05-07 20:35 28.44823 -81.32161 99 ft 8 kts 271°
2026-05-07 20:35 28.44821 -81.32220 100 ft 7 kts 248°
2026-05-07 20:35 28.44774 -81.32230 101 ft 7 kts 179°
2026-05-07 20:36 28.44634 -81.32231 103 ft 48 kts 180°
2026-05-07 20:36 28.44079 -81.32227 109 ft 110 kts 179°
2026-05-07 20:36 28.43124 -81.32216 100 ft 163 kts 179°
2026-05-07 20:36 28.41882 -81.32179 386 ft 185 kts 184°
2026-05-07 20:37 28.40586 -81.32176 1121 ft 188 kts 182°
2026-05-07 20:37 28.39279 -81.32193 1552 ft 194 kts 186°
2026-05-07 20:37 28.37878 -81.32288 1671 ft 208 kts 187°
2026-05-07 20:37 28.36392 -81.32387 1837 ft 221 kts 187°
2026-05-07 20:38 28.34817 -81.32422 2019 ft 234 kts 180°
2026-05-07 20:38 28.33178 -81.32489 2311 ft 244 kts 191°
2026-05-07 20:38 28.31489 -81.32880 2652 ft 252 kts 187°
2026-05-07 20:38 28.29701 -81.32870 3073 ft 260 kts 180°
2026-05-07 20:39 28.27898 -81.32853 3585 ft 259 kts 195°
2026-05-07 20:39 28.26226 -81.33561 4168 ft 261 kts 205°
2026-05-07 20:39 28.24560 -81.34424 4976 ft 264 kts 206°
2026-05-07 20:39 28.22882 -81.35295 5774 ft 266 kts 207°
2026-05-07 20:40 28.21164 -81.36172 6475 ft 272 kts 207°
2026-05-07 20:40 28.19456 -81.37029 7236 ft 273 kts 206°
2026-05-07 20:40 28.17704 -81.37899 7923 ft 276 kts 206°
2026-05-07 20:40 28.15932 -81.38769 8662 ft 277 kts 206°
2026-05-07 20:41 28.14154 -81.39637 9383 ft 280 kts 206°
2026-05-07 20:41 28.12357 -81.40511 10095 ft 282 kts 206°
2026-05-07 20:41 28.10514 -81.41406 10462 ft 298 kts 206°
2026-05-07 20:41 28.08542 -81.42364 10596 ft 319 kts 205°
2026-05-07 20:42 28.06448 -81.43378 10878 ft 333 kts 205°
2026-05-07 20:42 28.04297 -81.44416 11392 ft 339 kts 205°
2026-05-07 20:42 28.02118 -81.45465 11999 ft 341 kts 205°
2026-05-07 20:42 27.99925 -81.46522 12615 ft 344 kts 206°
2026-05-07 20:43 27.97709 -81.47590 13207 ft 347 kts 206°
2026-05-07 20:43 27.95475 -81.48667 13805 ft 351 kts 206°
2026-05-07 20:43 27.93219 -81.49755 14339 ft 354 kts 206°
2026-05-07 20:43 27.91028 -81.51038 14867 ft 354 kts 217°
2026-05-07 20:44 27.89042 -81.52694 15409 ft 356 kts 220°
2026-05-07 20:44 27.87073 -81.54411 15946 ft 359 kts 221°
2026-05-07 20:44 27.85109 -81.56124 16478 ft 362 kts 221°
2026-05-07 20:44 27.83102 -81.57863 17019 ft 365 kts 221°
2026-05-07 20:45 27.81075 -81.59606 17541 ft 368 kts 221°
2026-05-07 20:45 27.79014 -81.61371 17952 ft 375 kts 221°
2026-05-07 20:45 27.76924 -81.63156 18419 ft 378 kts 221°
2026-05-07 20:45 27.74815 -81.64955 18906 ft 379 kts 221°
2026-05-07 20:46 27.72709 -81.66748 19429 ft 379 kts 220°
2026-05-07 20:46 27.70410 -81.68252 19895 ft 389 kts 205°
2026-05-07 20:46 27.67749 -81.68961 20351 ft 399 kts 189°
2026-05-07 20:46 27.64947 -81.68851 20803 ft 408 kts 177°
2026-05-07 20:47 27.62119 -81.68420 21251 ft 411 kts 176°
2026-05-07 20:47 27.59283 -81.67953 21658 ft 414 kts 176°
2026-05-07 20:47 27.56459 -81.67484 22063 ft 416 kts 176°
2026-05-07 20:47 27.53585 -81.67015 22485 ft 419 kts 176°
2026-05-07 20:48 27.50689 -81.66554 22903 ft 420 kts 177°
2026-05-07 20:48 27.47779 -81.66100 23313 ft 423 kts 177°
2026-05-07 20:48 27.44855 -81.65651 23683 ft 425 kts 177°
2026-05-07 20:48 27.41915 -81.65204 23972 ft 428 kts 177°
2026-05-07 20:49 27.38944 -81.64755 24279 ft 430 kts 177°
2026-05-07 20:49 27.35959 -81.64304 24602 ft 432 kts 178°
2026-05-07 20:49 27.32972 -81.63853 24918 ft 434 kts 178°
2026-05-07 20:49 27.30008 -81.63406 25222 ft 436 kts 178°
2026-05-07 20:50 27.26987 -81.62951 25535 ft 438 kts 178°
2026-05-07 20:50 27.23959 -81.62494 25834 ft 440 kts 178°
2026-05-07 20:50 27.20916 -81.62036 26111 ft 443 kts 177°
2026-05-07 20:50 27.17855 -81.61575 26391 ft 445 kts 177°
2026-05-07 20:51 27.14774 -81.61111 26681 ft 447 kts 177°
2026-05-07 20:51 27.11682 -81.60645 26967 ft 449 kts 178°
2026-05-07 20:51 27.08578 -81.60179 27256 ft 451 kts 178°
2026-05-07 20:51 27.05461 -81.59710 27529 ft 453 kts 178°
2026-05-07 20:52 27.02326 -81.59239 27799 ft 455 kts 178°
2026-05-07 20:52 26.99186 -81.58767 28067 ft 457 kts 178°
2026-05-07 20:52 26.96025 -81.58293 28330 ft 459 kts 178°
2026-05-07 20:52 26.92893 -81.57823 28583 ft 460 kts 178°
2026-05-07 20:53 26.89706 -81.57346 28822 ft 463 kts 177°
2026-05-07 20:53 26.86507 -81.56866 29048 ft 465 kts 177°
2026-05-07 20:53 26.83299 -81.56386 29289 ft 466 kts 177°
2026-05-07 20:53 26.80079 -81.55904 29525 ft 468 kts 177°
2026-05-07 20:54 26.76837 -81.55419 29766 ft 470 kts 177°
2026-05-07 20:54 26.73597 -81.54934 30043 ft 470 kts 177°
2026-05-07 20:54 26.70360 -81.54450 30271 ft 468 kts 177°
2026-05-07 20:54 26.67138 -81.53967 30495 ft 467 kts 177°
2026-05-07 20:55 26.63912 -81.53485 30722 ft 466 kts 177°
2026-05-07 20:55 26.60687 -81.53004 30944 ft 465 kts 177°
2026-05-07 20:55 26.57477 -81.52526 31172 ft 465 kts 177°
2026-05-07 20:55 26.54309 -81.52054 31402 ft 464 kts 177°
2026-05-07 20:56 26.51107 -81.51578 31634 ft 463 kts 177°
2026-05-07 20:56 26.47912 -81.51102 31875 ft 463 kts 177°
2026-05-07 20:56 26.44723 -81.50628 32106 ft 462 kts 177°
2026-05-07 20:56 26.41543 -81.50156 32346 ft 461 kts 177°
2026-05-07 20:57 26.38362 -81.49683 32589 ft 461 kts 177°
2026-05-07 20:57 26.35187 -81.49212 32837 ft 460 kts 177°
2026-05-07 20:57 26.32006 -81.48740 33084 ft 460 kts 177°
2026-05-07 20:57 26.28837 -81.48270 33324 ft 459 kts 177°
2026-05-07 20:58 26.25669 -81.47801 33576 ft 459 kts 177°
2026-05-07 20:58 26.22505 -81.47332 33839 ft 459 kts 177°
2026-05-07 20:58 26.19343 -81.46864 34085 ft 458 kts 177°
2026-05-07 20:58 26.16183 -81.46396 34308 ft 457 kts 177°
2026-05-07 20:59 26.13025 -81.45929 34531 ft 457 kts 177°
2026-05-07 20:59 26.09879 -81.45374 34759 ft 459 kts 171°
2026-05-07 20:59 26.06787 -81.44433 35001 ft 460 kts 167°
2026-05-07 21:00 26.00667 -81.42311 35057 ft 467 kts 167°
2026-05-07 21:00 25.94438 -81.40133 35063 ft 469 kts 167°
2026-05-07 21:01 25.88189 -81.38002 35065 ft 469 kts 167°
2026-05-07 21:01 25.81935 -81.35902 35066 ft 469 kts 167°
2026-05-07 21:02 25.75683 -81.33812 35054 ft 469 kts 167°
2026-05-07 21:02 25.69469 -81.31735 35050 ft 468 kts 167°
2026-05-07 21:03 25.63235 -81.29653 35051 ft 467 kts 167°
2026-05-07 21:03 25.57014 -81.27576 35047 ft 467 kts 167°
2026-05-07 21:04 25.50793 -81.25502 35054 ft 466 kts 167°
2026-05-07 21:04 25.44584 -81.23434 35047 ft 466 kts 167°
2026-05-07 21:05 25.38370 -81.21367 35049 ft 466 kts 167°
2026-05-07 21:05 25.32196 -81.19315 35038 ft 466 kts 167°
2026-05-07 21:06 25.25993 -81.17256 35045 ft 466 kts 167°
2026-05-07 21:06 25.19780 -81.15195 35038 ft 466 kts 167°
2026-05-07 21:07 25.13559 -81.13135 35038 ft 466 kts 167°
2026-05-07 21:07 25.07348 -81.11079 35048 ft 469 kts 167°
2026-05-07 21:08 25.01036 -81.08994 35048 ft 477 kts 166°
2026-05-07 21:08 24.94628 -81.06878 35048 ft 484 kts 166°
2026-05-07 21:09 24.88187 -81.04751 35296 ft 483 kts 166°
2026-05-07 21:09 24.84973 -81.03690 35527 ft 481 kts 166°
2026-05-07 21:09 24.81780 -81.02638 35755 ft 478 kts 166°
2026-05-07 21:09 24.78598 -81.01616 35980 ft 474 kts 170°
2026-05-07 21:10 24.75364 -81.00984 36032 ft 472 kts 179°
2026-05-07 21:10 24.68818 -81.01117 36047 ft 472 kts 187°
2026-05-07 21:11 24.62221 -81.01473 36055 ft 477 kts 186°
2026-05-07 21:11 24.52241 -81.01767 36047 ft 483 kts 183°
2026-05-07 21:12 24.45512 -81.01666 36043 ft 484 kts 182°
2026-05-07 21:12 24.38780 -81.01553 36042 ft 484 kts 183°
2026-05-07 21:13 24.33186 -81.01489 36035 ft 482 kts 183°
2026-05-07 21:13 24.26471 -81.01430 36035 ft 481 kts 183°
2026-05-07 21:14 24.19775 -81.01374 36031 ft 480 kts 183°
2026-05-07 21:14 24.13135 -81.01316 36032 ft 478 kts 183°
2026-05-07 21:15 24.06482 -81.01257 36020 ft 477 kts 183°
2026-05-07 21:15 23.99846 -81.01198 36026 ft 476 kts 182°
2026-05-07 21:16 23.93215 -81.00979 36025 ft 477 kts 181°
2026-05-07 21:16 23.86587 -81.00653 36022 ft 476 kts 181°
2026-05-07 21:17 23.80008 -81.00344 36014 ft 476 kts 181°
2026-05-07 21:17 23.73372 -81.00055 36024 ft 476 kts 181°
2026-05-07 21:18 23.66748 -80.99773 36023 ft 477 kts 181°
2026-05-07 21:18 23.60135 -80.99492 36020 ft 477 kts 181°
2026-05-07 21:19 23.53491 -80.99208 36024 ft 478 kts 181°
2026-05-07 21:19 23.46832 -80.98924 36012 ft 479 kts 180°
2026-05-07 21:20 23.40162 -80.98639 36019 ft 480 kts 180°
2026-05-07 21:20 23.33468 -80.98354 36014 ft 481 kts 180°
2026-05-07 21:21 23.26767 -80.98069 36014 ft 482 kts 180°
2026-05-07 21:21 23.20059 -80.97797 36009 ft 482 kts 181°
2026-05-07 21:22 23.13353 -80.97528 36003 ft 482 kts 180°
2026-05-07 21:22 23.06678 -80.97261 36006 ft 482 kts 180°
2026-05-07 21:23 22.99972 -80.97024 36005 ft 482 kts 181°
2026-05-07 21:23 22.93273 -80.96765 36000 ft 482 kts 180°
2026-05-07 21:24 22.86567 -80.96494 35999 ft 481 kts 180°
2026-05-07 21:24 22.79869 -80.96226 35987 ft 481 kts 180°
2026-05-07 21:25 22.73175 -80.95961 35992 ft 480 kts 180°
2026-05-07 21:25 22.66538 -80.95699 35996 ft 480 kts 180°
2026-05-07 21:26 22.59862 -80.95437 35994 ft 480 kts 180°
2026-05-07 21:26 22.53168 -80.95173 35996 ft 480 kts 180°
2026-05-07 21:27 22.46487 -80.94911 35993 ft 480 kts 180°
2026-05-07 21:27 22.39805 -80.94648 36002 ft 480 kts 180°
2026-05-07 21:28 22.33156 -80.94388 36004 ft 481 kts 180°
2026-05-07 21:28 22.26471 -80.94126 36001 ft 481 kts 180°
2026-05-07 21:29 22.19779 -80.93864 36003 ft 481 kts 180°
2026-05-07 21:29 22.13076 -80.93601 36007 ft 482 kts 180°
2026-05-07 21:30 22.06373 -80.93339 36010 ft 482 kts 180°
2026-05-07 21:30 21.99661 -80.93077 36011 ft 482 kts 180°
2026-05-07 21:31 21.92944 -80.92815 36010 ft 483 kts 180°
2026-05-07 21:31 21.86218 -80.92553 36008 ft 483 kts 180°
2026-05-07 21:32 21.79541 -80.92293 36012 ft 483 kts 180°
2026-05-07 21:32 21.72821 -80.92032 36009 ft 483 kts 180°
2026-05-07 21:33 21.66103 -80.91771 36011 ft 483 kts 180°
2026-05-07 21:33 21.59382 -80.91510 36009 ft 483 kts 180°
2026-05-07 21:34 21.52668 -80.91249 36009 ft 483 kts 180°
2026-05-07 21:34 21.45955 -80.90991 36012 ft 482 kts 180°
2026-05-07 21:35 21.39280 -80.90738 36013 ft 482 kts 179°
2026-05-07 21:35 21.32558 -80.90479 36011 ft 483 kts 179°
2026-05-07 21:36 21.25834 -80.90222 36011 ft 483 kts 179°
2026-05-07 21:36 21.19116 -80.89966 36008 ft 483 kts 179°
2026-05-07 21:37 21.12389 -80.89709 36008 ft 483 kts 179°
2026-05-07 21:37 21.05710 -80.89453 36008 ft 483 kts 179°
2026-05-07 21:38 20.98974 -80.89162 36008 ft 484 kts 179°
2026-05-07 21:38 20.92240 -80.88856 36008 ft 484 kts 179°
2026-05-07 21:39 20.85547 -80.88557 36003 ft 484 kts 179°
2026-05-07 21:39 20.78794 -80.88258 36010 ft 484 kts 179°
2026-05-07 21:40 20.72062 -80.87961 36005 ft 484 kts 179°
2026-05-07 21:40 20.65332 -80.87665 36005 ft 484 kts 179°
2026-05-07 21:41 20.58632 -80.87370 36005 ft 484 kts 179°
2026-05-07 21:41 20.51905 -80.87074 36005 ft 484 kts 179°
2026-05-07 21:42 20.45166 -80.86778 36002 ft 484 kts 179°
2026-05-07 21:42 20.38435 -80.86483 36003 ft 484 kts 179°
2026-05-07 21:43 20.31703 -80.86187 36002 ft 484 kts 179°
2026-05-07 21:43 20.24974 -80.85892 36002 ft 484 kts 179°
2026-05-07 21:44 20.18277 -80.85599 36002 ft 484 kts 179°
2026-05-07 21:44 20.11547 -80.85305 36003 ft 484 kts 179°
2026-05-07 21:45 20.04797 -80.85010 36001 ft 484 kts 179°
2026-05-07 21:45 19.98100 -80.84715 36001 ft 484 kts 179°
2026-05-07 21:46 19.91371 -80.84392 36001 ft 484 kts 178°
2026-05-07 21:46 19.84636 -80.84063 36000 ft 484 kts 178°
2026-05-07 21:47 19.77901 -80.83736 35998 ft 484 kts 178°
2026-05-07 21:47 19.71196 -80.83413 35997 ft 484 kts 178°
2026-05-07 21:48 19.64468 -80.83090 35994 ft 484 kts 178°
2026-05-07 21:48 19.57735 -80.82767 35993 ft 484 kts 178°
2026-05-07 21:49 19.50999 -80.82444 35995 ft 484 kts 178°
2026-05-07 21:49 19.44248 -80.82121 35995 ft 484 kts 178°
2026-05-07 21:50 19.37556 -80.81800 35995 ft 484 kts 178°
2026-05-07 21:50 19.30799 -80.81477 35994 ft 484 kts 178°
2026-05-07 21:51 19.24062 -80.81155 35994 ft 484 kts 178°
2026-05-07 21:51 19.17371 -80.80838 35993 ft 484 kts 178°
2026-05-07 21:52 19.10644 -80.80519 35989 ft 484 kts 178°
2026-05-07 21:52 19.03917 -80.80200 35993 ft 483 kts 178°
2026-05-07 21:53 18.97178 -80.79880 35992 ft 483 kts 178°
2026-05-07 21:53 18.90459 -80.79562 35991 ft 483 kts 178°
2026-05-07 21:54 18.83796 -80.79247 35985 ft 482 kts 178°
2026-05-07 21:54 18.77086 -80.78929 35986 ft 482 kts 178°
2026-05-07 21:55 18.70379 -80.78612 35986 ft 482 kts 178°
2026-05-07 21:55 18.63681 -80.78296 35986 ft 482 kts 178°
2026-05-07 21:56 18.56981 -80.77980 35985 ft 482 kts 178°
2026-05-07 21:56 18.50268 -80.77664 35982 ft 481 kts 178°
2026-05-07 21:57 18.43611 -80.77350 35979 ft 482 kts 178°
2026-05-07 21:57 18.36916 -80.77035 35981 ft 482 kts 178°
2026-05-07 21:58 18.30216 -80.76720 35982 ft 482 kts 178°
2026-05-07 21:58 18.24641 -80.76458 35982 ft 482 kts 178°
2026-05-07 21:59 18.17929 -80.76143 35978 ft 482 kts 179°
2026-05-07 21:59 18.11215 -80.75828 35975 ft 482 kts 179°
2026-05-07 22:00 18.04503 -80.75513 35983 ft 482 kts 178°
2026-05-07 22:00 17.97804 -80.75199 35983 ft 482 kts 179°
2026-05-07 22:01 17.91102 -80.74886 35975 ft 482 kts 178°
2026-05-07 22:01 17.84446 -80.74574 35969 ft 482 kts 179°
2026-05-07 22:02 17.77739 -80.74260 35975 ft 481 kts 179°
2026-05-07 22:02 17.71026 -80.73947 35981 ft 481 kts 178°
2026-05-07 22:03 17.64373 -80.73636 35972 ft 481 kts 178°
2026-05-07 22:03 17.57678 -80.73323 35965 ft 481 kts 178°
2026-05-07 22:04 17.50991 -80.73010 35967 ft 481 kts 178°
2026-05-07 22:04 17.44290 -80.72696 35978 ft 481 kts 178°
2026-05-07 22:05 17.37594 -80.72382 35976 ft 481 kts 178°
2026-05-07 22:05 17.30938 -80.72071 35970 ft 481 kts 178°
2026-05-07 22:06 17.24254 -80.71760 35963 ft 481 kts 178°
2026-05-07 22:06 17.17563 -80.71447 35965 ft 481 kts 178°
2026-05-07 22:07 17.10873 -80.71134 35973 ft 480 kts 178°
2026-05-07 22:07 17.04181 -80.70820 35967 ft 481 kts 178°
2026-05-07 22:08 16.97491 -80.70509 35952 ft 481 kts 178°
2026-05-07 22:08 16.90800 -80.70197 35956 ft 481 kts 178°
2026-05-07 22:09 16.84143 -80.69887 35971 ft 480 kts 178°
2026-05-07 22:09 16.77443 -80.69576 35965 ft 481 kts 178°
2026-05-07 22:10 16.70750 -80.69266 35954 ft 482 kts 178°
2026-05-07 22:10 16.64093 -80.68957 35956 ft 482 kts 178°
2026-05-07 22:11 16.57393 -80.68645 35967 ft 481 kts 178°
2026-05-07 22:11 16.50696 -80.68335 35955 ft 482 kts 178°
2026-05-07 22:12 16.43988 -80.68024 35946 ft 482 kts 177°
2026-05-07 22:12 16.37293 -80.67714 35947 ft 481 kts 177°
2026-05-07 22:13 16.30597 -80.67404 35962 ft 481 kts 177°
2026-05-07 22:13 16.27256 -80.67249 36150 ft 479 kts 177°
2026-05-07 22:13 16.23928 -80.67095 36413 ft 477 kts 178°
2026-05-07 22:14 16.20664 -80.66944 36716 ft 474 kts 178°
2026-05-07 22:14 16.17374 -80.66792 36885 ft 473 kts 178°
2026-05-07 22:14 16.10817 -80.66490 36942 ft 472 kts 177°
2026-05-07 22:15 16.04254 -80.66187 36964 ft 476 kts 177°
2026-05-07 22:15 15.97589 -80.65879 36955 ft 481 kts 177°
2026-05-07 22:16 15.90879 -80.65570 36943 ft 484 kts 177°
2026-05-07 22:16 15.84160 -80.65260 36941 ft 482 kts 177°
2026-05-07 22:17 15.77476 -80.64953 36946 ft 477 kts 177°
2026-05-07 22:17 15.70863 -80.64648 36941 ft 473 kts 177°
2026-05-07 22:18 15.60999 -80.64195 36958 ft 477 kts 177°
2026-05-07 22:19 15.54330 -80.63888 36943 ft 482 kts 177°
2026-05-07 22:19 15.47613 -80.63580 36948 ft 484 kts 177°
2026-05-07 22:20 15.40905 -80.63273 36936 ft 480 kts 177°
2026-05-07 22:20 15.34275 -80.62969 36938 ft 475 kts 177°
2026-05-07 22:21 15.27731 -80.62669 36928 ft 473 kts 177°
2026-05-07 22:21 15.21131 -80.62367 36945 ft 476 kts 177°
2026-05-07 22:22 15.14477 -80.62062 36950 ft 480 kts 177°
2026-05-07 22:22 15.07783 -80.61756 36937 ft 482 kts 177°
2026-05-07 22:23 15.01105 -80.61450 36928 ft 478 kts 176°
2026-05-07 22:23 14.94523 -80.60635 36948 ft 475 kts 169°
2026-05-07 22:24 14.88071 -80.59454 36938 ft 473 kts 169°
2026-05-07 22:24 14.81585 -80.58262 36932 ft 472 kts 169°
2026-05-07 22:25 14.75099 -80.57121 36936 ft 473 kts 170°
2026-05-07 22:25 14.68622 -80.56006 36938 ft 475 kts 170°
2026-05-07 22:26 14.62065 -80.54884 36942 ft 477 kts 170°
2026-05-07 22:26 14.55505 -80.53761 36934 ft 478 kts 170°
2026-05-07 22:27 14.48979 -80.52643 36926 ft 478 kts 170°
2026-05-07 22:27 14.42412 -80.51519 36932 ft 477 kts 170°
2026-05-07 22:28 14.35877 -80.50401 36918 ft 474 kts 170°
2026-05-07 22:28 14.29380 -80.49290 36922 ft 472 kts 170°
2026-05-07 22:29 14.22952 -80.48192 36926 ft 470 kts 170°
2026-05-07 22:29 14.16480 -80.47086 36930 ft 473 kts 170°
2026-05-07 22:30 14.09937 -80.45969 36933 ft 478 kts 170°
2026-05-07 22:30 14.03348 -80.44845 36923 ft 481 kts 170°
2026-05-07 22:31 13.96768 -80.43723 36912 ft 476 kts 170°
2026-05-07 22:31 13.90301 -80.42621 36913 ft 470 kts 170°
2026-05-07 22:32 13.83871 -80.41526 36910 ft 467 kts 170°
2026-05-07 22:32 13.77437 -80.40431 36929 ft 470 kts 170°
2026-05-07 22:33 13.70946 -80.39326 36928 ft 475 kts 171°
2026-05-07 22:33 13.64432 -80.38219 36926 ft 479 kts 170°
2026-05-07 22:34 13.57870 -80.37104 36910 ft 475 kts 170°
2026-05-07 22:34 13.51397 -80.36004 36906 ft 468 kts 170°
2026-05-07 22:35 13.44996 -80.34918 36917 ft 464 kts 170°
2026-05-07 22:35 13.38601 -80.33833 36924 ft 468 kts 170°
2026-05-07 22:36 13.32137 -80.32736 36920 ft 473 kts 170°
2026-05-07 22:36 13.25638 -80.31635 36923 ft 477 kts 170°
2026-05-07 22:37 13.19067 -80.30522 36905 ft 478 kts 169°
2026-05-07 22:37 13.12528 -80.29416 36905 ft 473 kts 170°
2026-05-07 22:38 13.06078 -80.28326 36903 ft 468 kts 169°
2026-05-07 22:38 12.99668 -80.27241 36909 ft 465 kts 169°
2026-05-07 22:39 12.93264 -80.26157 36925 ft 469 kts 169°
2026-05-07 22:39 12.86791 -80.25063 36912 ft 474 kts 169°
2026-05-07 22:40 12.80292 -80.23966 36918 ft 478 kts 169°
2026-05-07 22:40 12.73726 -80.22860 36893 ft 477 kts 169°
2026-05-07 22:41 12.67217 -80.21762 36892 ft 470 kts 169°
2026-05-07 22:41 12.60794 -80.20678 36898 ft 466 kts 169°
2026-05-07 22:42 12.54389 -80.19599 36907 ft 467 kts 169°
2026-05-07 22:42 12.47978 -80.18520 36917 ft 472 kts 169°
2026-05-07 22:43 12.41450 -80.17421 36902 ft 476 kts 169°
2026-05-07 22:43 12.34897 -80.16317 36908 ft 478 kts 169°
2026-05-07 22:44 12.28338 -80.15212 36885 ft 475 kts 170°
2026-05-07 22:44 12.21899 -80.14132 36884 ft 469 kts 169°
2026-05-07 22:45 12.15479 -80.13055 36891 ft 465 kts 169°
2026-05-07 22:45 12.09074 -80.11979 36904 ft 468 kts 169°
2026-05-07 22:46 12.03705 -80.11076 36911 ft 472 kts 169°
2026-05-07 22:46 11.97180 -80.09978 36894 ft 477 kts 169°
2026-05-07 22:47 11.89552 -80.08701 36890 ft 476 kts 169°
2026-05-07 22:47 11.84095 -80.07789 36881 ft 472 kts 169°
2026-05-07 22:48 11.77642 -80.06712 36882 ft 467 kts 169°
2026-05-07 22:48 11.71280 -80.05648 36882 ft 464 kts 169°
2026-05-07 22:49 11.64884 -80.04575 36897 ft 467 kts 169°
2026-05-07 22:49 11.58421 -80.03491 36901 ft 473 kts 169°
2026-05-07 22:50 11.51928 -80.02404 36888 ft 477 kts 168°
2026-05-07 22:50 11.45359 -80.01310 36887 ft 479 kts 169°
2026-05-07 22:51 11.38798 -80.00214 36872 ft 475 kts 169°
2026-05-07 22:51 11.32315 -79.99132 36876 ft 469 kts 169°
2026-05-07 22:52 11.25898 -79.98060 36871 ft 465 kts 170°
2026-05-07 22:52 11.19548 -79.96999 36894 ft 467 kts 169°
2026-05-07 22:53 11.13077 -79.95919 36898 ft 472 kts 169°
2026-05-07 22:53 11.06559 -79.94834 36886 ft 476 kts 170°
2026-05-07 22:54 11.00000 -79.93742 36885 ft 478 kts 170°
2026-05-07 22:54 10.93411 -79.92645 36730 ft 482 kts 169°
2026-05-07 22:54 10.90105 -79.92095 36416 ft 477 kts 169°
2026-05-07 22:55 10.86828 -79.91550 35620 ft 479 kts 169°
2026-05-07 22:55 10.83540 -79.91002 35023 ft 478 kts 169°
2026-05-07 22:55 10.80285 -79.90461 34342 ft 479 kts 169°
2026-05-07 22:55 10.76992 -79.89913 33634 ft 480 kts 169°
2026-05-07 22:56 10.73688 -79.89364 32893 ft 480 kts 169°
2026-05-07 22:56 10.70385 -79.88815 32179 ft 481 kts 169°
2026-05-07 22:56 10.67081 -79.88265 31458 ft 482 kts 169°
2026-05-07 22:56 10.63767 -79.87715 30718 ft 483 kts 168°
2026-05-07 22:57 10.60437 -79.87161 29935 ft 486 kts 168°
2026-05-07 22:57 10.57089 -79.86605 29021 ft 488 kts 168°
2026-05-07 22:57 10.53725 -79.86046 28151 ft 489 kts 168°
2026-05-07 22:57 10.50361 -79.85488 27270 ft 490 kts 168°
2026-05-07 22:58 10.47032 -79.84935 26381 ft 492 kts 168°
2026-05-07 22:58 10.43641 -79.84362 25486 ft 493 kts 166°
2026-05-07 22:58 10.40403 -79.83329 24792 ft 483 kts 149°
2026-05-07 22:58 10.37561 -79.81555 24156 ft 477 kts 144°
2026-05-07 22:59 10.34760 -79.79760 23454 ft 475 kts 145°
2026-05-07 22:59 10.31956 -79.78006 22672 ft 472 kts 146°
2026-05-07 22:59 10.29160 -79.76285 21975 ft 467 kts 146°
2026-05-07 22:59 10.26389 -79.74598 21304 ft 462 kts 146°
2026-05-07 23:00 10.23641 -79.72931 20638 ft 457 kts 147°
2026-05-07 23:00 10.20925 -79.71286 19985 ft 453 kts 147°
2026-05-07 23:00 10.18231 -79.69652 19313 ft 449 kts 147°
2026-05-07 23:00 10.15562 -79.68033 18684 ft 445 kts 147°
2026-05-07 23:01 10.12928 -79.66435 18019 ft 440 kts 147°
2026-05-07 23:01 10.10315 -79.64848 17446 ft 433 kts 147°
2026-05-07 23:01 10.07762 -79.63298 16682 ft 431 kts 147°
2026-05-07 23:01 10.05216 -79.61753 16285 ft 421 kts 147°
2026-05-07 23:02 10.02742 -79.60253 16052 ft 407 kts 147°
2026-05-07 23:02 10.00341 -79.58798 15855 ft 393 kts 146°
2026-05-07 23:02 9.98032 -79.57397 15685 ft 380 kts 146°
2026-05-07 23:02 9.95793 -79.56038 15521 ft 369 kts 146°
2026-05-07 23:03 9.93650 -79.54737 15375 ft 358 kts 146°
2026-05-07 23:03 9.91541 -79.53457 15223 ft 348 kts 146°
2026-05-07 23:03 9.89494 -79.52215 15081 ft 338 kts 146°
2026-05-07 23:03 9.87502 -79.51009 14948 ft 329 kts 146°
2026-05-07 23:04 9.85537 -79.49861 14682 ft 326 kts 149°
2026-05-07 23:04 9.83476 -79.48874 14286 ft 328 kts 152°
2026-05-07 23:04 9.81377 -79.47948 13873 ft 329 kts 153°
2026-05-07 23:04 9.79265 -79.47026 13408 ft 331 kts 153°
2026-05-07 23:05 9.77151 -79.46096 12966 ft 332 kts 153°
2026-05-07 23:05 9.75033 -79.45155 12518 ft 332 kts 153°
2026-05-07 23:05 9.72948 -79.44221 12095 ft 332 kts 153°
2026-05-07 23:05 9.70834 -79.43269 11665 ft 332 kts 153°
2026-05-07 23:06 9.68717 -79.42313 11232 ft 332 kts 153°
2026-05-07 23:06 9.66596 -79.41354 10810 ft 333 kts 153°
2026-05-07 23:06 9.64479 -79.40397 10371 ft 331 kts 154°
2026-05-07 23:06 9.62432 -79.39472 10034 ft 321 kts 154°
2026-05-07 23:07 9.60442 -79.38574 9927 ft 303 kts 154°
2026-05-07 23:07 9.58574 -79.37732 9881 ft 284 kts 154°
2026-05-07 23:07 9.56789 -79.36925 9555 ft 278 kts 154°
2026-05-07 23:07 9.55014 -79.36121 9100 ft 279 kts 154°
2026-05-07 23:08 9.53243 -79.35321 8665 ft 278 kts 154°
2026-05-07 23:08 9.51500 -79.34533 8236 ft 276 kts 154°
2026-05-07 23:08 9.49724 -79.33732 7839 ft 274 kts 154°
2026-05-07 23:08 9.48016 -79.32960 7516 ft 272 kts 154°
2026-05-07 23:09 9.46293 -79.32182 7257 ft 271 kts 154°
2026-05-07 23:09 9.44547 -79.31393 6991 ft 277 kts 154°
2026-05-07 23:09 9.42779 -79.30595 6698 ft 278 kts 154°
2026-05-07 23:09 9.41007 -79.29795 6416 ft 277 kts 154°
2026-05-07 23:10 9.39266 -79.29009 6293 ft 265 kts 155°
2026-05-07 23:10 9.37660 -79.28286 6142 ft 249 kts 154°
2026-05-07 23:10 9.36118 -79.27590 5947 ft 239 kts 154°
2026-05-07 23:10 9.34606 -79.26907 5619 ft 237 kts 154°
2026-05-07 23:11 9.33105 -79.26230 5247 ft 237 kts 154°
2026-05-07 23:11 9.31596 -79.25548 4902 ft 236 kts 154°
2026-05-07 23:11 9.30085 -79.24867 4531 ft 237 kts 154°
2026-05-07 23:11 9.28588 -79.24192 4181 ft 236 kts 154°
2026-05-07 23:12 9.27087 -79.23514 3830 ft 236 kts 155°
2026-05-07 23:12 9.25572 -79.22915 3486 ft 233 kts 168°
2026-05-07 23:12 9.24011 -79.23110 3253 ft 221 kts 207°
2026-05-07 23:12 9.22817 -79.23944 3215 ft 200 kts 225°
2026-05-07 23:13 9.21848 -79.24941 3093 ft 202 kts 226°
2026-05-07 23:13 9.20882 -79.25966 2930 ft 200 kts 227°
2026-05-07 23:13 9.19932 -79.26968 2753 ft 194 kts 227°
2026-05-07 23:13 9.19021 -79.27918 2577 ft 186 kts 229°
2026-05-07 23:14 9.18130 -79.28848 2482 ft 184 kts 229°
2026-05-07 23:14 9.17247 -79.29769 2275 ft 180 kts 227°
2026-05-07 23:14 9.16381 -79.30671 2048 ft 176 kts 229°
2026-05-07 23:14 9.15532 -79.31554 1817 ft 173 kts 227°
2026-05-07 23:15 9.14682 -79.32436 1622 ft 173 kts 228°
2026-05-07 23:15 9.13844 -79.33305 1345 ft 171 kts 228°
2026-05-07 23:15 9.13022 -79.34159 1093 ft 168 kts 227°
2026-05-07 23:15 9.12112 -79.35016 1220 ft 186 kts 222°
2026-05-07 23:16 9.11198 -79.35916 1779 ft 188 kts 228°
2026-05-07 23:16 9.10278 -79.36925 2329 ft 202 kts 234°
2026-05-07 23:16 9.09802 -79.38243 2942 ft 208 kts 274°
2026-05-07 23:16 9.09962 -79.39726 3352 ft 225 kts 268°
2026-05-07 23:17 9.09501 -79.41294 3786 ft 236 kts 251°
2026-05-07 23:17 9.08971 -79.42870 3920 ft 240 kts 253°
2026-05-07 23:17 9.08449 -79.44477 3952 ft 241 kts 253°
2026-05-07 23:17 9.07920 -79.46105 3969 ft 244 kts 253°
2026-05-07 23:18 9.07376 -79.47748 3963 ft 248 kts 249°
2026-05-07 23:18 9.06350 -79.49133 3963 ft 247 kts 219°
2026-05-07 23:18 9.04944 -79.50121 3976 ft 253 kts 214°
2026-05-07 23:18 9.03471 -79.51116 4003 ft 257 kts 214°
2026-05-07 23:19 9.01980 -79.52122 4005 ft 259 kts 214°
2026-05-07 23:19 9.00488 -79.53136 3990 ft 258 kts 215°
2026-05-07 23:19 8.98992 -79.54141 3994 ft 257 kts 215°
2026-05-07 23:19 8.97497 -79.55126 4051 ft 253 kts 215°
2026-05-07 23:20 8.96081 -79.56148 4056 ft 247 kts 215°
2026-05-07 23:20 8.94627 -79.57070 4079 ft 249 kts 203°
2026-05-07 23:20 8.92919 -79.57320 4067 ft 250 kts 170°
2026-05-07 23:20 8.91377 -79.56645 4080 ft 238 kts 137°
2026-05-07 23:21 8.90428 -79.55354 3940 ft 230 kts 110°
2026-05-07 23:21 8.90028 -79.53836 3918 ft 223 kts 98°
2026-05-07 23:21 8.89737 -79.52273 3774 ft 227 kts 98°
2026-05-07 23:21 8.89443 -79.50675 3484 ft 233 kts 98°
2026-05-07 23:22 8.89360 -79.49099 3322 ft 214 kts 72°
2026-05-07 23:22 8.90143 -79.47962 3194 ft 191 kts 34°
2026-05-07 23:22 8.91209 -79.47204 2978 ft 184 kts 34°
2026-05-07 23:22 8.92258 -79.46470 2736 ft 184 kts 31°
2026-05-07 23:23 8.93348 -79.45805 2502 ft 183 kts 27°
2026-05-07 23:23 8.94439 -79.45175 2272 ft 174 kts 28°
2026-05-07 23:23 8.95455 -79.44592 2044 ft 160 kts 28°
2026-05-07 23:23 8.96406 -79.44047 1839 ft 157 kts 27°
2026-05-07 23:24 8.97345 -79.43510 1627 ft 158 kts 27°
2026-05-07 23:24 8.98302 -79.42962 1446 ft 158 kts 27°
2026-05-07 23:24 8.99251 -79.42417 1223 ft 154 kts 28°
2026-05-07 23:24 9.00179 -79.41886 1024 ft 153 kts 28°
2026-05-07 23:25 9.01098 -79.41361 847 ft 152 kts 28°
2026-05-07 23:25 9.02016 -79.40836 668 ft 151 kts 28°
2026-05-07 23:25 9.02935 -79.40307 468 ft 152 kts 30°
2026-05-07 23:25 9.03855 -79.39782 288 ft 152 kts 30°
2026-05-07 23:26 9.04770 -79.39257 101 ft 151 kts 29°
2026-05-07 23:26 9.05655 -79.38765 42 ft 135 kts 28°
2026-05-07 23:26 9.06249 -79.38412 43 ft 41 kts 30°
2026-05-07 23:26 9.06305 -79.38380 43 ft 2 kts 20°
2026-05-07 23:27 9.06368 -79.38383 43 ft 6 kts 357°
2026-05-07 23:27 9.06426 -79.38386 42 ft 12 kts 357°
2026-05-07 23:27 9.06515 -79.38390 43 ft 12 kts 358°
2026-05-07 23:28 9.06562 -79.38390 43 ft 3 kts 359°
2026-05-07 23:28 9.06583 -79.38390 42 ft 3 kts 360°
2026-05-07 23:28 9.06603 -79.38391 43 ft 3 kts 358°
2026-05-07 23:28 9.06631 -79.38405 44 ft 11 kts 323°
2026-05-07 23:29 9.06684 -79.38483 44 ft 14 kts 301°
2026-05-07 23:29 9.06707 -79.38550 43 ft 6 kts 286°
2026-05-07 23:29 9.06716 -79.38560 45 ft 2 kts 314°
2026-05-07 23:29 9.06724 -79.38568 45 ft 0 kts 315°